| time (UTC) | temp F | wind direction | speed MPH | gust MPH | rain 1hr in | rain 24hr in | rain mn in | humidity % | barometer mb |
| 20260507094546 | 39 | 290 | 1.0 | 2.0 | 0.00 | 0.30 | 0.00 | 1 | 1011.0 |
| 20260507093043 | 40 | 290 | 0.0 | 2.0 | 0.00 | 0.30 | 0.00 | 1 | 1011.0 |
| 20260507091542 | 40 | 291 | 0.0 | 3.0 | 0.00 | 0.30 | 0.00 | 1 | 1011.0 |
| 20260507090033 | 41 | 292 | 0.0 | 2.0 | 0.00 | 0.30 | 0.00 | 1 | 1011.1 |
| 20260507084532 | 41 | 360 | 0.0 | 4.0 | 0.00 | 0.30 | 0.00 | 1 | 1011.0 |
| 20260507083024 | 42 | 293 | 1.0 | 4.0 | 0.00 | 0.30 | 0.00 | 1 | 1011.1 |
| 20260507081521 | 42 | 290 | 2.0 | 4.0 | 0.00 | 0.30 | 0.00 | 1 | 1011.0 |
| 20260507080017 | 43 | 290 | 1.0 | 4.0 | 0.00 | 0.30 | 0.00 | 1 | 1011.1 |
| 20260507074510 | 43 | 290 | 1.0 | 3.0 | 0.00 | 0.30 | 0.00 | 1 | 1011.0 |
| 20260507073007 | 43 | 290 | 2.0 | 4.0 | 0.00 | 0.30 | 0.00 | 1 | 1010.8 |
| 20260507071504 | 44 | 290 | 1.0 | 5.0 | 0.00 | 0.30 | 0.00 | 1 | 1011.0 |
| 20260507070115 | 44 | 281 | 2.0 | 8.0 | 0.00 | 0.30 | 0.00 | 1 | 1011.0 |
| 20260507064604 | 45 | 309 | 2.0 | 9.0 | 0.00 | 0.30 | 0.00 | 1 | 1010.9 |
| 20260507063056 | 45 | 273 | 2.0 | 6.0 | 0.00 | 0.30 | 0.00 | 1 | 1010.7 |
| 20260507061548 | 45 | 265 | 4.0 | 11.0 | 0.00 | 0.30 | 0.00 | 1 | 1010.5 |
| 20260507060045 | 46 | 318 | 5.0 | 10.0 | 0.00 | 0.30 | 0.00 | 1 | 1010.3 |
| 20260507054538 | 46 | 336 | 3.0 | 10.0 | 0.00 | 0.30 | 0.00 | 1 | 1010.2 |
| 20260507053031 | 47 | 342 | 5.0 | 9.0 | 0.00 | 0.30 | 0.00 | 1 | 1010.1 |
| 20260507051527 | 47 | 318 | 2.0 | 5.0 | 0.00 | 0.30 | 0.00 | 1 | 1010.3 |
| 20260507050025 | 47 | 278 | 1.0 | 5.0 | 0.00 | 0.30 | 0.00 | 1 | 1010.2 |
| 20260507044519 | 46 | 279 | 1.0 | 5.0 | 0.00 | 0.30 | 0.00 | 1 | 1010.3 |
| 20260507043013 | 46 | 280 | 0.0 | 2.0 | 0.00 | 0.30 | 0.00 | 1 | 1010.2 |
| 20260507041509 | 46 | 280 | 0.0 | 1.0 | 0.00 | 0.30 | 0.30 | 1 | 1009.9 |
| 20260507040004 | 46 | 280 | 0.0 | 3.0 | 0.00 | 0.30 | 0.30 | 1 | 1009.9 |
| 20260507034616 | 46 | 280 | 0.0 | 2.0 | 0.00 | 0.30 | 0.30 | 1 | 1009.8 |
| 20260507033102 | 46 | 280 | 0.0 | 1.0 | 0.00 | 0.30 | 0.30 | 1 | 1009.6 |
| 20260507031557 | 46 | 281 | 0.0 | 1.0 | 0.00 | 0.30 | 0.30 | 1 | 1010.0 |
| 20260507030048 | 46 | 281 | 0.0 | 2.0 | 0.00 | 0.30 | 0.30 | 1 | 1009.7 |
| 20260507024543 | 46 | 281 | 1.0 | 3.0 | 0.00 | 0.30 | 0.30 | 1 | 1010.3 |
| 20260507023038 | 46 | 281 | 0.0 | 2.0 | 0.00 | 0.30 | 0.30 | 1 | 1009.9 |
| 20260507021534 | 46 | 280 | 0.0 | 2.0 | 0.00 | 0.30 | 0.30 | 1 | 1010.6 |
| 20260507020040 | 47 | 280 | 0.0 | 2.0 | 0.00 | 0.30 | 0.30 | 1 | 1010.4 |
| 20260507014526 | 47 | 280 | 0.0 | 1.0 | 0.00 | 0.30 | 0.30 | 1 | 1010.4 |
| 20260507013039 | 47 | 280 | 0.0 | 3.0 | 0.00 | 0.30 | 0.30 | 1 | 1010.3 |
| 20260507011517 | 47 | 280 | 0.0 | 3.0 | 0.00 | 0.30 | 0.30 | 1 | 1010.3 |
| 20260507010013 | 47 | 280 | 0.0 | 3.0 | 0.00 | 0.30 | 0.30 | 1 | 1010.1 |
| 20260507004507 | 47 | 280 | 0.0 | 2.0 | 0.00 | 0.30 | 0.30 | 1 | 1010.0 |
| 20260507003004 | 47 | 280 | 0.0 | 4.0 | 0.00 | 0.30 | 0.30 | 1 | 1009.8 |
| 20260507001600 | 47 | 261 | 1.0 | 4.0 | 0.00 | 0.30 | 0.30 | 1 | 1009.6 |
| 20260507000055 | 48 | 261 | 1.0 | 4.0 | 0.00 | 0.30 | 0.30 | 1 | 1009.4 |
| 20260506234550 | 48 | 301 | 1.0 | 5.0 | 0.00 | 0.30 | 0.30 | 1 | 1009.1 |
| 20260506233100 | 48 | 248 | 1.0 | 5.0 | 0.00 | 0.30 | 0.30 | 1 | 1009.1 |
| 20260506231542 | 48 | 293 | 3.0 | 8.0 | 0.00 | 0.31 | 0.30 | 1 | 1009.2 |
| 20260506230036 | 48 | 256 | 3.0 | 7.0 | 0.00 | 0.31 | 0.30 | 1 | 1008.9 |
| 20260506224532 | 48 | 308 | 2.0 | 7.0 | 0.00 | 0.31 | 0.30 | 1 | 1009.0 |
| 20260506223027 | 48 | 309 | 3.0 | 12.0 | 0.00 | 0.31 | 0.30 | 1 | 1008.7 |
| 20260506221523 | 48 | 350 | 4.0 | 9.0 | 0.00 | 0.31 | 0.30 | 1 | 1008.5 |
| 20260506220026 | 48 | 342 | 5.0 | 10.0 | 0.00 | 0.31 | 0.30 | 1 | 1008.3 |
| 20260506214514 | 48 | 297 | 5.0 | 12.0 | 0.00 | 0.31 | 0.30 | 1 | 1008.4 |
| 20260506213009 | 49 | 333 | 4.0 | 10.0 | 0.00 | 0.31 | 0.30 | 1 | 1008.2 |
| 20260506211506 | 49 | 305 | 3.0 | 9.0 | 0.00 | 0.31 | 0.30 | 1 | 1007.8 |
| 20260506210100 | 49 | 313 | 3.0 | 10.0 | 0.00 | 0.31 | 0.30 | 1 | 1007.5 |
| 20260506204556 | 49 | 318 | 6.0 | 12.0 | 0.01 | 0.31 | 0.30 | 1 | 1007.2 |
| 20260506203052 | 49 | 315 | 4.0 | 10.0 | 0.01 | 0.31 | 0.30 | 1 | 1007.0 |
| 20260506201547 | 49 | 298 | 3.0 | 9.0 | 0.02 | 0.39 | 0.30 | 1 | 1006.5 |
| 20260506200046 | 50 | 284 | 4.0 | 9.0 | 0.03 | 0.39 | 0.30 | 1 | 1006.4 |
| 20260506194544 | 51 | 304 | 5.0 | 10.0 | 0.02 | 0.38 | 0.28 | 1 | 1006.3 |
| 20260506193033 | 51 | 288 | 4.0 | 11.0 | 0.02 | 0.38 | 0.28 | 1 | 1006.3 |
| 20260506191529 | 51 | 257 | 2.0 | 6.0 | 0.01 | 0.37 | 0.28 | 1 | 1005.9 |
| 20260506190024 | 51 | 296 | 2.0 | 7.0 | 0.00 | 0.36 | 0.27 | 1 | 1005.7 |
| 20260506184519 | 52 | 247 | 2.0 | 10.0 | 0.00 | 0.36 | 0.27 | 1 | 1005.6 |
| 20260506183015 | 52 | 277 | 3.0 | 10.0 | 0.01 | 0.36 | 0.27 | 1 | 1005.5 |
| 20260506181516 | 52 | 274 | 5.0 | 11.0 | 0.01 | 0.37 | 0.27 | 1 | 1005.1 |
| 20260506180014 | 54 | 267 | 4.0 | 8.0 | 0.01 | 0.37 | 0.27 | 1 | 1005.0 |
| 20260506174501 | 55 | 280 | 3.0 | 10.0 | 0.01 | 0.37 | 0.27 | 1 | 1004.5 |
| 20260506173111 | 58 | 315 | 6.0 | 11.0 | 0.00 | 0.36 | 0.26 | 1 | 1004.4 |
| 20260506171557 | 60 | 300 | 4.0 | 7.0 | 0.00 | 0.36 | 0.26 | 1 | 1004.0 |
| 20260506170059 | 60 | 277 | 4.0 | 9.0 | 0.00 | 0.36 | 0.26 | 1 | 1004.0 |
| 20260506164554 | 60 | 255 | 2.0 | 7.0 | 0.00 | 0.36 | 0.26 | 1 | 1004.1 |
| 20260506163042 | 60 | 245 | 2.0 | 10.0 | 0.01 | 0.36 | 0.26 | 1 | 1004.0 |
| 20260506161535 | 59 | 242 | 4.0 | 9.0 | 0.02 | 0.36 | 0.26 | 1 | 1003.9 |
| 20260506160030 | 59 | 251 | 2.0 | 10.0 | 0.03 | 0.36 | 0.26 | 1 | 1004.1 |
| 20260506154526 | 59 | 267 | 1.0 | 7.0 | 0.04 | 0.36 | 0.26 | 1 | 1004.2 |
| 20260506153021 | 59 | 274 | 2.0 | 10.0 | 0.03 | 0.35 | 0.25 | 1 | 1004.0 |
| 20260506151523 | 59 | 214 | 3.0 | 8.0 | 0.03 | 0.34 | 0.24 | 1 | 1004.4 |
| 20260506150018 | 59 | 242 | 1.0 | 7.0 | 0.02 | 0.33 | 0.23 | 1 | 1004.1 |
| 20260506144513 | 59 | 171 | 2.0 | 6.0 | 0.02 | 0.32 | 0.22 | 1 | 1004.1 |
| 20260506143010 | 58 | 26 | 0.0 | 3.0 | 0.03 | 0.32 | 0.22 | 1 | 1004.1 |
| 20260506141505 | 58 | 26 | 3.0 | 5.0 | 0.04 | 0.31 | 0.21 | 1 | 1004.1 |
| 20260506140001 | 57 | 348 | 1.0 | 3.0 | 0.07 | 0.31 | 0.21 | 1 | 1004.2 |
| 20260506134556 | 57 | 348 | 0.0 | 2.0 | 0.10 | 0.30 | 0.20 | 1 | 1004.3 |
| 20260506133103 | 57 | 221 | 1.0 | 3.0 | 0.12 | 0.28 | 0.19 | 1 | 1004.6 |
| 20260506131548 | 57 | 221 | 0.0 | 3.0 | 0.12 | 0.27 | 0.17 | 1 | 1005.0 |
| 20260506130044 | 57 | 221 | 1.0 | 5.0 | 0.10 | 0.24 | 0.14 | 1 | 1005.1 |
| 20260506124541 | 57 | 173 | 2.0 | 6.0 | 0.07 | 0.20 | 0.10 | 1 | 1005.2 |
| 20260506123041 | 56 | 218 | 1.0 | 5.0 | 0.04 | 0.17 | 0.07 | 1 | 1004.8 |
| 20260506121531 | 55 | 94 | 0.0 | 2.0 | 0.03 | 0.18 | 0.05 | 1 | 1004.6 |
| 20260506120036 | 55 | 90 | 1.0 | 3.0 | 0.02 | 0.17 | 0.04 | 1 | 1004.6 |
| 20260506114525 | 54 | 89 | 0.0 | 1.0 | 0.01 | 0.16 | 0.03 | 1 | 1005.1 |
| 20260506113019 | 54 | 89 | 0.0 | 1.0 | 0.01 | 0.16 | 0.03 | 1 | 1005.1 |
| 20260506111515 | 54 | 89 | 0.0 | 2.0 | 0.01 | 0.15 | 0.02 | 1 | 1005.1 |
| 20260506110010 | 54 | 89 | 0.0 | 1.0 | 0.01 | 0.15 | 0.02 | 1 | 1005.0 |
| 20260506104505 | 54 | 88 | 0.0 | 1.0 | 0.01 | 0.15 | 0.02 | 1 | 1005.1 |
| 20260506103004 | 54 | 88 | 0.0 | 1.0 | 0.02 | 0.15 | 0.02 | 1 | 1005.1 |
| 20260506101557 | 54 | 88 | 0.0 | 1.0 | 0.01 | 0.14 | 0.01 | 1 | 1004.8 |
| 20260506100054 | 54 | 88 | 0.0 | 2.0 | 0.01 | 0.14 | 0.01 | 1 | 1004.6 |